Flag for Germany Weather past 2 weeks in Höxter, North Rhine-Westphalia, Germany

Now
42 °F

Overcast.


Feels Like: 39 °F
Forecast: 38 / 54 °F
Wind: 5 mph from West

Location: Bad Lippspringe

Current Time: Mar 27, 2015 at 11:50:15 PM

Latest Report: Mar 27, 2015 at 10:00 PM


Visibility: 34 mi

Pressure: 30.18 "Hg

Humidity: 84%

Dew point: 37 °F

Location of HöxterLocation

Historic Weather in Höxter — Graph

°F

Höxter temperature yesterday

Maximum temperature yesterday: 47 °F (at 5:00 PM)
Minimum temperature yesterday: 39 °F (at 7:00 AM)
Average temperature yesterday: 42 °F

Past Weeks' High & Low Weather Summary

 TemperatureHumidityPressure
High63 °F (Mar 25, 3:00 PM)100% (Mar 19, 8:00 AM)30.44 "Hg (Mar 19, 8:00 AM)
Low27 °F (Mar 23, 5:00 AM)42% (Mar 17, 3:00 PM)29.63 "Hg (Mar 25, 3:00 PM)
Average42 °F80%30.14 "Hg
* Reported Mar 12 10:00 PM — Mar 27 10:00 PM, Höxter, Weather by CustomWeather, © 2015

Note: Actual official high and low records may vary slightly from our data, if they occured in-between our weather recording intervals... More about our weather records

Advertising

Höxter weather history for previous 24 hours

 ConditionsComfort  
Time TempWeatherWind HumidityBarometerVisibility
10:00 PM
Fri, Mar 27
42 °FOvercast.5 mph84%30.18 "Hg34 mi
9:00 PM42 °FOvercast.6 mph79%30.17 "Hg43 mi
8:00 PM43 °FOvercast.5 mph78%30.14 "Hg43 mi
7:00 PM42 °FOvercast.3 mph83%30.12 "Hg16 mi
6:00 PM42 °FDrizzle. Overcast.5 mph85%30.09 "Hg14 mi
5:00 PM44 °FOvercast.5 mph83%30.06 "Hg17 mi
4:00 PM43 °FOvercast.9 mph84%30.03 "Hg18 mi
3:00 PM45 °FOvercast.8 mph85%30.01 "Hg19 mi
2:00 PM43 °FOvercast.8 mph88%29.98 "Hg16 mi
1:00 PM42 °FOvercast.8 mph86%29.98 "Hg11 mi
12:00 PM43 °FOvercast.8 mph80%29.95 "Hg11 mi
11:00 AM42 °FOvercast.7 mph85%29.94 "Hg7 mi
10:00 AM40 °FLow clouds.6 mph94%29.93 "Hg4 mi
9:00 AM41 °FLight freezing rain. Overcast.7 mph88%29.91 "Hg4 mi
8:00 AM41 °FOvercast.6 mph91%29.89 "Hg4 mi
7:00 AM41 °FDrizzle. Overcast.6 mph91%29.86 "Hg3 mi
6:00 AM42 °FOvercast.5 mph87%29.84 "Hg13 mi
5:00 AM42 °FOvercast.5 mph92%29.82 "Hg16 mi
4:00 AM42 °FOvercast.5 mph92%29.80 "Hg31 mi
3:00 AM42 °FOvercast.6 mph93%29.79 "Hg12 mi
2:00 AM42 °FOvercast.5 mph89%29.79 "Hg16 mi
1:00 AM41 °FOvercast.3 mph90%29.78 "Hg28 mi
12:00 AM41 °FDrizzle. Overcast.5 mph85%29.77 "Hg43 mi
11:00 PM
Thu, Mar 26
41 °FDrizzle. Overcast.3 mph83%29.76 "Hg43 mi
Weather by CustomWeather, © 2015

See weather overviewHow to use our weather pages